This is the latest recevied weather packets stored in our database for station/object NO3U. If no packets are shown the sender has not sent any weather packets the latest 10 day(s).
| Time | Temp. | Humidity | Pressure | Rain* | Wind** | Luminosity | Snow |
|---|---|---|---|---|---|---|---|
| 1778012315 | 22.22° C | 56% | 1008 hPa | 0 mm | - | 138 W/m² | - |
| 1778012012 | 22.22° C | 56% | 1007.9 hPa | 0 mm | - | 135 W/m² | - |
| 1778011711 | 21.67° C | 58% | 1007.9 hPa | 0 mm | - | 188 W/m² | - |
| 1778011407 | 21.67° C | 56% | 1008.3 hPa | 0 mm | - | 142 W/m² | - |
| 1778011102 | 21.67° C | 57% | 1008.5 hPa | 0 mm | - | 98 W/m² | - |
| 1778010800 | 21.67° C | 58% | 1008.3 hPa | 0 mm | - | 107 W/m² | - |
| 1778010497 | 21.67° C | 58% | 1008.6 hPa | 0 mm | - | 124 W/m² | - |
| 1778010194 | 21.67° C | 56% | 1008.6 hPa | 0 mm | - | 80 W/m² | - |
| 1778009889 | 21.67° C | 55% | 1008.6 hPa | 0 mm | - | 68 W/m² | - |
| 1778009587 | 21.67° C | 55% | 1008.9 hPa | 0 mm | - | 95 W/m² | - |
| 1778009285 | 21.67° C | 57% | 1008.6 hPa | 0 mm | - | 77 W/m² | - |
| 1778008983 | 21.67° C | 55% | 1008.7 hPa | 0 mm | - | 113 W/m² | - |
| 1778008681 | 21.67° C | 55% | 1008.9 hPa | 0 mm | - | 82 W/m² | - |
| 1778008379 | 21.67° C | 55% | 1008.9 hPa | 0 mm | - | 72 W/m² | - |
| 1778008075 | 21.67° C | 55% | 1008.7 hPa | 0 mm | - | 69 W/m² | - |
| 1778007770 | 22.22° C | 54% | 1008.9 hPa | 0 mm | - | 85 W/m² | - |
| 1778007467 | 22.22° C | 53% | 1008.8 hPa | 0 mm | - | 122 W/m² | - |
| 1778007163 | 22.22° C | 53% | 1008.6 hPa | 0 mm | - | 181 W/m² | - |
| 1778006859 | 22.22° C | 52% | 1008.9 hPa | 0 mm | - | 170 W/m² | - |
| 1778006557 | 22.22° C | 52% | 1008.7 hPa | 0 mm | - | 169 W/m² | - |
| 1778006253 | 22.22° C | 52% | 1008.9 hPa | 0 mm | - | 180 W/m² | - |
| 1778005951 | 22.78° C | 49% | 1008.8 hPa | 0 mm | - | 170 W/m² | - |
| 1778005647 | 22.78° C | 50% | 1008.7 hPa | 0 mm | - | 229 W/m² | - |
| 1778005344 | 23.33° C | 50% | 1008.7 hPa | 0 mm | - | 299 W/m² | - |
| 1778005040 | 22.78° C | 50% | 1008.6 hPa | 0 mm | - | 594 W/m² | - |
* Rain latest hour (hover to see other rain measurements)
** Current wind speed in m/s (hover to see current wind gust speed)